Weather in Rodynske

Ukraine / Donetsk Region     48°21′11″N   37°12′36″E
temp.,
°C
wind,
m/s
gust,
m/s
humid.,
%
clouds,
%
prec.,
mm/h
press.,
hPa
HPBL,
m
19 september, sun
sun1900:00+16sse394997 0.0 1011194
03:00+16se4854100 0.0 1011224
06:00+17se51162100 0.0 1010426
09:00+18sse71181100 0.1 1009767
12:00+16sse61192100 3.2 1009759
15:00+20ssw467227 5.1 1008754
18:00+20s226554 1.3 100820
21:00+17s2274100 1.4 100813
20 september, mon
mon2000:00+17w2262100 0.0 100832
03:00+15sw347117 0.0 100854
06:00+13sw35735 0.0 100978
09:00+17wsw566862 0.0 1010463
12:00+20sw594637 0.0 10101589
15:00+19w784972 0.0 10101041
18:00+17wsw610473 0.1 1010971
21:00+12w510575 0.1 1013442
21 september, tue
tue2100:00+9wsw37665 0.0 1014176
03:00+9wsw497312 0.0 1014372
06:00+7wsw49885 0.0 1015296
09:00+11wsw686657 0.0 1014741
12:00+15wsw694792 0.0 10131649
15:00+15w7843100 0.0 10131862
18:00+12wnw575547 0.0 10141302
21:00+9wnw5872100 0.0 1015756
22 september, wed
wed2200:00+8w6977100 0.0 1015932
03:00+7wnw5977100 0.0 1015862
06:00+7w5878100 0.0 1015851
09:00+7wnw5682100 0.1 1015786
12:00+8wnw5573100 0.1 1015976
15:00+9wnw4569100 0.1 1014946
18:00+9wnw3468100 0.0 1014647
21:00+8wnw2371100 0.1 1015431
23 september, thu
thu2300:00+8wnw2377100 0.0 1014370
03:00+7w2376100 0.0 1013389
06:00+7wnw3379100 0.0 1013475
09:00+8w2376100 0.0 1013610
12:00+10w3462100 0.1 10121230
15:00+11nw345496 0.1 10111080
18:00+10nw235995 0.0 1011177
21:00+9nnw236491 0.0 1011230